OP1 (TYVAK-0820) (52741 NORAD) Tracking and Keplerian Element Data

This shows tracking and keplerian element data for the satellite.

Feedback or suggestion? Click here.




ElementValue
Catalog52741
NameOP1 (TYVAK-0820)
Epoch Orbit712
Epoch Day192.86870613
Epoch Year2022
RAAN307.1961
Inclination97.5251
Eccentricity0.0011939
Argument of Perigee94.1057
Mean Anonmoly266.1538
Mean Motion15.12256944
Decay Rate6.733E-05
L11 52741U 22057K 22192.86870613 .00006733 00000+0 39236-3 0 9994
L22 52741 97.5251 307.1961 0011939 94.1057 266.1538 15.12256944 7126

Live tracking and technical data element details for OP1 (TYVAK-0820) (NORAD 52741). OP1 (TYVAK-0820) can be tracked NOW for your location showing map with azimuth and elevation plus other details from your city location.

Track the satellite on the map from your city or location and see movement details for azimuth, elevation, latitude, longitude, range, height, and movement on the map or in text.







IsCatalogInMostPopularTable: catalog: 52741, numindb: 4
Update: records affected: 1



GetName: 52741 OP1 (TYVAK-0820)

Hit Count: updated at: Sun, 14 Aug 2022 01:36:26 GMT